Location: Saluda
(35.2377°N, 82.3468°W)
Time: 04:07:33
(UTC+00:00)

Vanguard 2 Rocket - Pass Details

Date: 10 October 2022
Orbit: 555 x 3321 km, 32.9° (Epoch: 05 December)

Event Time Altitude Azimuth Distance (km) Brightness Sun altitude
Rises 21:46:47 0° 191° (SSW) 6,669 11.8 13.9°
Reaches altitude 10° 21:52:51 10° 177° (S) 5,976 11.3 12.7°
Maximum altitude 22:05:34 22° 136° (SE) 5,330 10.6 10.2°
Drops below altitude 10° 22:18:13 10° 95° (E) 6,037 10.5 7.7°
Sets 22:24:13 0° 82° (E) 6,764 10.7 6.5°
